Vorticity
10 10 11 10 8 6 7 10 8 4 6 7 8 12 13 8 5 7 8 5 3 6 9 3 -1 1 2 3 5 6 8 8 8 8 7 8 9 7 4 4 5 5 9 11 10 9 7 6 8 10 10 10 8 7 9 8 7 7 9 11 12 12 11 10 8 5 2 2 4 4 5 8 7 5 4 6 7 10 11 7 5 6 7 9 9 7
8 10 13 14 10 6 6 4 2 3 5 7 8 13 18 15 9 6 7 6 3 5 6 0 -1 2 3 4 4 4 6 8 9 10 9 7 5 3 0 2 6 7 10 13 11 10 9 7 7 9 11 10 8 7 8 8 8 8 10 13 12 11 10 10 8 4 1 2 4 5 7 8 7 5 6 7 8 10 9 6 6 5 6 7 7 6
8 10 12 13 10 8 7 4 3 3 3 6 7 9 16 17 10 6 7 7 3 3 3 1 5 4 1 3 2 2 4 5 5 7 9 9 5 2 1 3 5 5 7 8 8 9 9 8 7 8 10 10 8 8 8 9 9 9 11 14 13 10 11 10 6 2 0 2 6 7 7 8 8 7 7 8 9 9 9 8 7 6 6 6 6 6
7 11 11 10 12 12 10 7 4 3 3 9 11 9 13 15 11 10 6 1 1 5 6 8 6 -3 -4 -0 -3 -4 -0 -0 1 4 6 9 9 6 4 5 3 3 10 12 11 11 10 9 9 6 8 10 10 8 7 9 9 9 11 15 14 11 11 9 3 2 2 4 8 9 7 8 9 9 8 8 9 9 10 10 8 7 6 5 7 7
2 8 9 7 10 12 12 9 4 3 4 8 15 13 11 11 12 11 5 0 3 6 6 8 4 -5 -2 4 1 1 3 3 2 1 3 7 9 9 8 6 4 5 15 19 13 9 9 10 8 5 6 9 9 8 7 7 8 8 10 15 15 11 11 9 2 2 4 5 7 9 9 8 8 9 8 8 8 8 10 10 8 6 5 6 7 7
1 3 5 6 7 8 11 11 7 6 4 5 13 13 10 11 10 8 7 4 6 9 9 8 6 4 6 6 -0 1 5 3 3 3 3 6 9 11 10 8 8 8 10 13 10 8 8 9 8 6 8 10 8 7 7 8 8 7 9 15 17 11 9 9 3 2 5 5 6 7 6 5 6 7 6 9 10 9 9 8 7 6 5 6 7 8
3 3 3 4 6 6 8 11 11 9 4 5 13 11 7 9 6 4 7 5 2 6 9 8 6 9 12 7 0 5 7 -1 1 5 2 5 10 9 7 6 10 9 6 7 7 9 10 9 8 7 8 10 9 6 7 10 10 8 7 13 19 14 8 8 4 3 5 5 4 3 2 3 7 8 7 9 11 10 9 8 6 6 6 6 8 9
4 5 5 4 4 5 5 8 10 12 9 10 14 9 5 7 4 1 5 4 -1 1 8 9 6 7 12 11 6 7 7 -2 2 7 3 5 10 7 4 7 10 9 9 10 9 13 15 10 6 7 8 9 9 7 8 10 12 10 6 9 18 16 9 8 4 2 5 4 2 3 5 5 6 9 11 10 10 10 8 7 6 6 7 7 8 8
5 5 6 6 4 4 5 6 7 9 12 15 14 6 7 11 5 2 7 6 -1 -1 4 6 3 3 7 10 7 4 3 1 3 6 6 9 12 9 5 5 7 6 8 9 10 17 20 12 5 6 7 8 10 9 7 9 13 13 8 6 14 16 11 9 5 2 4 3 3 5 7 8 6 8 12 12 11 10 7 6 6 6 7 8 8 7
8 6 6 7 7 6 7 6 5 6 9 14 12 6 7 13 9 4 7 6 0 -2 2 7 5 2 3 6 7 8 13 12 0 -1 12 16 11 5 -0 3 7 6 6 6 9 20 20 9 5 5 6 8 9 8 5 7 13 15 11 6 8 14 14 10 5 3 3 4 6 6 6 8 6 6 10 12 11 9 8 7 6 7 9 9 8 6
8 8 7 8 9 9 7 6 6 6 6 10 12 9 7 10 11 8 5 5 3 -2 -0 9 9 3 4 6 3 2 11 15 2 -2 13 18 9 -6 -13 2 12 5 5 5 6 20 18 4 5 8 6 8 10 10 8 8 12 14 14 9 7 11 13 11 7 4 4 5 7 8 8 7 4 4 8 9 9 8 8 7 8 10 9 7 6 4
7 8 9 7 6 6 6 7 7 6 7 7 9 12 9 7 10 9 3 2 5 0 -4 3 8 6 6 5 2 -1 2 7 4 2 8 10 10 -5 -21 -3 14 4 4 6 2 16 20 6 6 10 8 8 10 13 13 9 10 13 14 12 9 8 11 11 8 6 6 5 6 8 8 6 3 5 8 8 8 8 7 8 10 10 8 5 4 4
7 7 8 8 7 6 6 8 7 6 7 6 6 10 9 8 8 8 5 3 6 4 -4 -2 3 6 6 1 -0 -0 -2 -1 1 4 10 10 12 2 -17 -6 12 4 3 9 1 8 20 12 5 9 10 7 7 10 12 10 9 11 13 13 9 7 9 10 8 7 7 6 6 8 8 6 3 4 8 9 8 9 8 8 10 9 6 5 4 4
8 8 10 11 10 8 5 6 8 6 6 7 9 9 7 8 6 5 5 5 9 8 -2 -4 -2 2 5 3 1 3 0 -0 -0 3 11 13 11 7 -3 -0 11 6 3 9 4 5 19 16 3 7 11 8 7 7 8 8 8 11 13 12 10 7 8 9 9 7 6 6 8 8 6 6 4 3 7 10 9 9 9 9 10 8 5 5 4 4
6 8 9 9 8 8 6 6 7 7 6 6 8 11 10 9 7 7 7 6 12 13 2 -4 -5 -4 -0 -1 2 8 7 6 7 6 7 9 8 8 7 6 10 11 7 8 6 5 16 17 5 7 10 8 9 7 5 6 6 10 14 12 11 8 6 7 9 9 7 5 8 8 7 6 5 2 6 10 10 8 7 7 8 7 5 6 5 5
8 6 6 7 7 7 6 7 7 6 9 7 7 11 13 9 8 10 9 6 11 15 7 0 -4 -6 -6 -5 -0 8 8 6 8 8 4 3 4 6 9 7 6 12 12 12 9 4 15 18 6 6 10 8 10 8 5 7 5 9 14 14 13 10 6 6 6 8 9 6 7 8 7 6 5 3 6 10 10 7 7 6 6 7 6 6 7 6
12 9 8 8 10 9 7 8 9 8 10 10 7 6 7 9 9 9 8 7 10 14 11 5 1 -3 -6 -7 -4 3 5 3 3 5 4 3 4 7 12 10 7 10 10 11 7 2 11 13 0 2 9 8 10 8 6 9 6 6 11 14 17 13 9 6 4 6 8 7 7 8 8 6 5 5 5 8 9 7 6 6 5 7 8 7 7 7
12 11 12 11 10 11 9 9 12 12 10 9 7 4 3 6 9 8 8 7 9 13 13 11 8 4 -1 -5 -4 -1 2 3 3 3 3 5 6 7 10 9 7 9 7 6 3 -1 8 10 1 4 8 7 10 9 8 9 4 4 7 11 18 20 13 8 5 5 6 6 6 7 9 7 6 6 4 5 9 8 7 6 6 7 8 8 8 7
13 11 11 12 11 11 11 10 14 15 11 9 11 10 6 3 3 6 8 8 8 10 11 16 16 11 5 0 -1 -2 -2 2 8 7 6 6 5 5 9 8 5 6 6 8 6 -1 3 7 4 7 6 4 9 9 9 9 3 3 7 8 14 22 19 11 6 6 5 5 6 6 8 8 6 6 5 4 8 9 8 7 7 7 7 8 7 6
15 12 9 10 10 11 13 12 11 10 10 10 11 13 12 8 4 5 7 7 9 8 7 13 18 16 11 7 5 4 1 3 7 9 10 9 6 7 11 11 8 7 5 8 11 4 1 4 6 12 11 6 7 8 8 8 3 2 6 8 10 16 22 19 11 8 5 5 6 6 7 7 6 6 6 5 6 8 8 7 6 7 7 8 6 5
14 14 11 11 10 9 11 11 7 6 10 10 8 8 12 13 10 7 5 3 4 6 7 10 13 14 14 13 12 10 11 11 10 9 11 12 13 14 16 13 10 10 6 6 12 9 6 7 2 5 15 13 7 5 5 6 5 3 4 8 9 11 19 23 17 11 8 6 6 6 6 6 6 6 6 6 5 6 8 8 7 7 7 7 6 6
13 13 12 12 13 11 8 8 6 6 8 9 9 7 7 11 12 10 9 8 6 6 6 5 7 9 9 11 14 12 13 17 15 15 18 16 14 12 13 10 7 10 9 6 9 8 7 11 2 -4 10 16 9 4 5 6 6 5 4 5 8 10 14 20 20 14 10 7 7 6 7 6 5 5 5 6 6 5 6 7 7 7 7 7 7 7
12 11 12 13 14 13 10 10 9 8 8 8 9 9 7 9 10 10 9 9 10 11 8 5 6 7 5 9 16 16 17 19 15 13 13 10 7 5 7 7 4 9 12 7 7 4 2 9 8 4 9 12 9 6 6 7 6 5 6 5 7 10 10 13 18 17 12 8 7 7 7 6 5 4 4 6 7 5 4 5 7 7 7 7 7 6
17 12 10 12 14 11 11 14 12 9 10 11 11 10 9 8 9 11 12 10 11 10 8 7 8 8 6 10 15 16 17 16 9 4 1 1 3 3 4 5 3 7 10 8 7 2 -3 1 9 14 14 11 11 9 6 8 7 4 5 6 6 7 8 10 14 17 17 11 6 6 7 7 6 5 4 5 6 6 5 3 4 6 7 6 6 6
22 17 9 8 12 11 9 12 13 9 7 9 11 10 10 8 7 10 12 12 12 9 7 9 11 8 5 8 11 10 11 11 7 2 -0 2 6 5 5 6 4 5 8 9 10 5 -1 -0 4 10 11 8 11 12 9 8 6 3 4 6 6 5 4 8 11 15 20 17 11 7 6 7 7 6 6 5 5 6 6 4 3 4 5 5 5 6
20 21 17 8 6 8 6 5 9 10 5 4 7 8 8 8 7 9 10 9 9 10 11 12 12 9 7 7 5 2 3 7 4 -0 1 5 7 6 7 8 6 6 7 9 11 8 5 5 6 7 6 3 7 11 10 8 6 5 4 3 6 6 3 5 8 13 17 20 17 11 6 6 8 7 7 6 5 4 5 5 5 4 4 4 4 4
14 17 21 14 5 4 6 4 6 10 10 7 6 7 8 7 6 6 9 8 8 10 11 8 8 10 11 10 7 3 6 9 5 3 5 7 8 5 3 5 7 5 5 9 12 10 7 6 8 10 7 2 3 6 7 7 6 5 4 3 4 6 5 4 5 9 14 18 20 17 10 7 6 8 9 7 6 5 5 5 5 5 4 4 4 3
15 14 18 19 12 4 4 5 6 8 10 10 8 7 7 8 8 8 8 8 9 11 9 6 9 12 10 10 11 9 10 10 9 10 7 1 3 5 0 1 7 7 4 6 9 10 10 8 6 9 8 3 2 2 2 2 3 3 4 4 2 4 6 5 3 5 9 14 17 19 18 12 7 6 9 9 8 6 5 5 5 5 5 4 4 4
15 15 17 21 21 12 3 1 4 5 5 5 6 7 6 6 8 9 9 9 10 11 8 7 11 13 10 11 13 10 6 6 7 11 10 4 5 8 4 1 7 9 5 4 5 5 10 11 6 4 5 4 3 2 0 -1 -1 1 4 4 2 3 4 4 4 4 6 10 13 15 18 18 12 8 7 8 9 8 7 6 5 5 6 5 5 5
9 12 15 18 23 24 15 2 -1 1 3 3 2 3 5 5 5 6 7 9 11 11 9 9 11 11 12 15 17 12 5 3 1 -0 6 14 15 10 5 3 5 6 4 5 6 4 6 12 11 5 1 1 3 4 3 1 -0 1 5 5 2 2 4 3 4 4 4 8 9 9 12 17 16 13 8 7 8 8 8 8 7 6 6 6 6 5
7 8 11 12 15 23 27 19 7 -2 -2 2 2 1 2 2 2 3 4 6 10 11 9 8 7 7 11 16 20 18 9 0 -5 -9 -6 6 14 9 2 1 3 4 3 4 8 6 2 4 8 10 8 2 1 6 7 5 3 3 6 6 3 4 4 4 6 5 5 7 8 7 8 12 16 18 13 9 7 7 8 8 8 7 6 6 6 6
6 6 7 8 8 10 18 26 24 14 4 -1 -0 1 1 1 -1 -1 1 3 7 9 10 9 7 5 8 13 17 21 18 7 -3 -7 -9 -4 5 9 6 1 1 3 2 1 3 3 -2 -3 1 8 15 12 4 4 8 7 6 6 5 4 4 4 4 5 7 6 4 5 7 7 7 8 13 19 19 15 10 7 7 7 7 8 7 6 7 6
4 5 5 5 6 6 8 12 18 24 22 14 6 2 0 0 -1 -1 1 1 1 4 7 9 9 5 5 10 11 13 18 18 9 3 4 2 2 7 9 4 -0 2 3 -0 0 0 -2 2 7 8 13 19 14 7 7 8 8 8 6 4 3 3 4 5 7 7 5 4 5 7 8 7 9 15 19 20 16 10 8 8 7 8 8 7 6 5
8 8 9 7 4 6 10 8 5 10 17 20 19 16 10 4 -0 -1 1 0 -0 3 5 6 9 8 4 5 7 7 14 22 16 8 12 13 5 2 7 7 1 -0 3 1 -1 3 3 4 11 11 10 16 19 14 8 7 7 8 8 7 5 4 4 5 6 6 4 3 4 6 8 8 8 11 14 17 19 16 11 10 10 9 9 8 6 7
14 13 14 14 10 9 12 14 12 7 4 8 16 19 18 16 10 5 4 1 -0 1 4 6 7 8 7 5 5 6 13 23 17 3 6 15 10 0 4 12 6 -3 2 5 -3 -1 8 6 4 8 8 8 14 17 12 7 6 7 6 6 6 6 5 5 6 7 4 2 3 5 6 7 6 6 8 11 16 17 15 12 11 10 10 11 9 8
18 18 18 18 18 16 15 18 21 16 6 7 12 11 12 17 19 17 14 11 7 2 3 7 7 6 7 7 7 6 9 18 17 1 -2 10 14 4 -1 14 20 4 -4 1 -2 -3 8 9 1 -2 2 7 10 12 14 10 5 5 5 4 5 7 7 5 5 7 6 2 2 3 3 5 5 3 5 7 10 15 16 14 13 11 10 10 11 10
16 17 18 19 19 19 18 20 24 24 19 18 22 20 15 12 13 16 17 16 15 10 6 8 10 11 8 5 6 6 6 13 16 6 -3 0 12 12 -4 0 26 27 6 -5 -3 2 6 9 9 2 -2 8 12 8 13 16 8 4 3 2 3 5 6 6 5 6 6 3 2 4 2 1 3 2 3 5 6 10 14 15 15 13 10 9 9 10
7 7 9 13 16 16 16 16 20 25 24 20 22 26 27 22 18 17 16 13 14 14 9 6 8 12 14 12 8 4 3 9 14 14 5 -4 4 17 3 -12 4 29 27 7 -3 4 6 6 13 8 -6 2 13 9 12 19 14 9 5 -1 1 4 4 5 6 5 6 4 1 2 1 -0 2 2 2 4 5 6 9 12 13 13 12 12 11 10
1 3 4 8 13 13 14 14 14 19 19 14 12 15 20 23 24 26 26 17 11 13 13 9 6 7 10 14 16 11 5 4 9 16 14 1 -2 11 13 -2 -11 1 23 24 8 3 6 5 10 10 -3 -2 8 8 8 10 10 15 15 5 1 0 1 6 8 4 5 6 3 1 -0 -1 1 4 4 3 3 5 7 8 10 10 12 14 14 13
4 3 3 8 16 19 20 18 14 13 13 10 8 8 10 11 11 20 31 24 12 13 18 14 10 8 6 6 12 16 14 8 6 12 16 9 0 3 10 8 -4 -12 2 19 16 8 8 8 9 12 7 1 1 5 6 2 1 9 16 15 11 4 -2 2 8 7 5 5 5 4 1 -2 -1 2 4 4 3 5 6 5 6 7 9 12 14 14
4 3 1 2 7 14 19 20 15 10 8 11 14 16 20 20 10 10 25 27 16 16 23 20 15 13 10 6 6 10 14 15 10 10 15 13 3 2 7 7 2 -8 -12 -2 11 17 20 18 9 4 7 6 2 3 5 2 3 6 6 9 16 15 6 2 6 9 7 3 6 8 5 1 1 0 2 4 3 4 5 6 6 6 7 9 10 11
4 5 4 1 -1 1 8 16 18 14 10 12 18 19 23 32 31 23 23 24 18 16 20 22 21 18 14 11 8 6 8 14 14 11 16 16 6 1 5 6 3 -3 -12 -11 2 11 21 29 16 -3 -0 9 7 6 8 2 2 10 9 2 4 12 12 7 5 5 5 4 6 10 9 6 5 3 1 2 3 3 5 6 6 6 6 7 8 9
11 11 11 9 5 3 4 8 14 17 14 12 15 16 14 21 33 37 33 27 25 23 22 21 23 23 20 16 14 10 5 7 13 13 13 19 15 4 0 2 3 1 -3 -4 -4 -4 7 31 33 11 -0 5 6 7 14 9 -3 1 13 12 7 8 9 9 8 7 7 7 6 7 10 9 7 7 4 3 4 4 4 5 5 5 6 6 7 8
17 20 23 25 22 17 12 8 8 13 16 15 14 14 12 11 15 23 27 27 25 25 25 25 25 24 24 22 20 19 12 4 7 12 12 16 20 14 4 0 -0 1 3 1 -4 -10 -11 7 30 25 5 1 3 0 9 18 5 -5 3 12 11 9 3 2 8 10 11 12 8 5 7 8 7 8 7 6 6 5 3 3 3 4 4 5 6 7
17 20 23 27 26 20 15 11 7 6 11 15 14 12 12 12 11 12 16 18 17 15 16 22 28 28 27 25 21 24 25 14 5 7 10 11 17 20 16 8 -1 -1 4 3 1 -4 -19 -19 11 28 8 -2 5 2 3 14 14 8 12 15 13 13 8 1 2 7 11 14 11 6 7 7 5 6 7 8 7 7 7 6 3 3 5 5 5 7
19 18 13 12 14 14 14 14 13 11 10 11 13 14 15 15 13 12 13 14 15 14 12 13 21 27 30 31 25 23 29 28 16 7 7 8 11 17 21 18 7 -1 2 3 2 1 -12 -23 -4 19 11 -0 6 9 7 12 16 17 17 12 5 6 9 7 6 7 11 14 12 9 7 5 4 5 11 16 11 2 3 7 5 3 4 4 5 7
11 17 13 10 12 16 17 18 18 18 16 12 11 14 17 18 17 16 15 15 14 16 17 14 13 15 20 28 31 27 28 35 30 17 10 8 8 10 16 22 18 6 1 2 1 -0 -4 -14 -12 6 15 10 8 10 9 12 15 7 -6 -11 -7 -0 7 11 11 10 13 14 12 11 9 7 7 8 13 23 20 2 -7 -1 5 5 4 3 4 5
-2 4 7 11 16 18 16 17 17 17 18 17 15 15 15 17 20 19 18 19 16 15 19 20 17 12 8 13 24 27 26 33 39 32 20 12 9 8 8 16 25 18 5 1 -1 -2 -1 -6 -12 -6 7 12 15 19 17 11 6 -2 -15 -19 -11 2 13 17 13 10 11 9 6 9 10 10 13 10 7 18 26 12 -4 -2 6 9 6 4 4 5
1 -2 -0 6 15 16 11 10 13 15 16 16 16 15 14 15 19 21 21 21 20 17 18 21 23 20 11 5 13 22 21 24 35 42 35 22 15 13 7 7 19 26 18 7 -1 -4 -2 -2 -8 -11 -7 -1 6 17 28 24 7 -4 -4 -2 -2 5 17 21 15 9 9 8 7 8 8 10 14 13 6 10 17 14 6 6 9 7 5 4 4 5
9 3 -0 3 12 14 9 6 8 11 15 16 14 13 13 13 15 18 22 23 22 20 20 21 22 22 16 7 9 19 21 15 19 35 45 36 24 20 15 7 7 18 26 20 7 -3 -5 -2 -1 -5 -8 -7 -10 -8 15 36 23 -1 -4 4 8 13 18 18 15 11 9 12 13 9 6 9 12 11 6 5 6 7 7 8 7 5 6 5 5 5
11 5 1 5 10 10 8 8 9 8 9 13 15 14 15 13 11 13 18 23 23 22 21 22 22 22 20 13 8 14 21 16 8 17 36 43 37 30 25 17 8 8 19 27 20 6 -4 -5 1 1 -4 -2 -5 -19 -14 14 32 25 11 -3 -6 6 15 15 15 10 2 5 13 11 8 12 13 8 4 2 3 4 5 5 5 7 8 8 7 8
Height
5836 5838 5841 5845 5848 5849 5851 5852 5852 5852 5854 5857 5860 5863 5864 5866 5867 5870 5872 5873 5874 5877 5878 5879 5881 5883 5884 5886 5888 5889 5890 5892 5893 5895 5896 5898 5899 5901 5902 5903 5904 5905 5906 5907 5907 5907 5907 5908 5909 5909 5910 5911 5912 5912 5913 5914 5915 5915 5916 5917 5918 5919 5921 5922 5924 5925 5927 5927 5928 5929 5929 5930 5931 5932 5932 5933 5934 5934 5935 5936 5936 5937 5938 5939 5939 5940
5833 5836 5840 5843 5844 5845 5848 5849 5849 5850 5853 5856 5859 5861 5863 5865 5866 5867 5869 5870 5872 5876 5877 5877 5879 5881 5882 5884 5886 5888 5889 5890 5892 5894 5895 5896 5898 5900 5901 5902 5902 5903 5905 5906 5907 5907 5907 5908 5909 5909 5910 5911 5911 5912 5913 5914 5915 5916 5916 5917 5918 5919 5921 5922 5923 5925 5926 5927 5928 5928 5929 5930 5931 5932 5932 5933 5934 5935 5936 5936 5937 5938 5939 5940 5940 5941
5831 5835 5838 5839 5840 5842 5844 5846 5847 5848 5851 5854 5857 5859 5861 5863 5864 5865 5866 5868 5870 5874 5875 5876 5878 5879 5880 5882 5884 5886 5887 5888 5890 5892 5894 5895 5897 5898 5900 5901 5902 5903 5903 5904 5906 5907 5907 5908 5909 5909 5910 5911 5911 5912 5913 5914 5915 5916 5917 5918 5918 5919 5921 5922 5923 5925 5926 5927 5928 5928 5929 5930 5931 5932 5933 5934 5935 5935 5936 5937 5938 5939 5940 5941 5941 5942
5831 5834 5835 5835 5837 5839 5842 5844 5845 5846 5849 5853 5856 5858 5860 5861 5862 5863 5864 5865 5867 5871 5874 5876 5877 5876 5877 5879 5880 5882 5884 5886 5888 5890 5893 5894 5896 5897 5899 5900 5901 5902 5903 5903 5904 5905 5907 5908 5909 5909 5910 5911 5911 5912 5913 5914 5915 5916 5917 5917 5918 5919 5921 5922 5924 5925 5926 5927 5929 5929 5930 5931 5932 5932 5933 5934 5935 5936 5937 5938 5939 5940 5941 5941 5942 5943
5828 5830 5830 5832 5834 5836 5839 5841 5842 5845 5849 5852 5855 5857 5858 5860 5861 5862 5863 5863 5865 5869 5872 5874 5875 5875 5876 5878 5879 5880 5883 5885 5887 5889 5891 5893 5895 5896 5898 5900 5901 5902 5902 5903 5904 5905 5906 5907 5908 5909 5909 5910 5911 5911 5912 5914 5915 5915 5916 5917 5918 5920 5921 5922 5924 5925 5926 5928 5929 5930 5931 5932 5933 5933 5934 5934 5935 5935 5937 5938 5939 5940 5941 5942 5943 5943
5824 5825 5827 5829 5832 5834 5836 5838 5840 5843 5847 5851 5854 5856 5858 5859 5860 5860 5861 5861 5862 5866 5870 5872 5874 5876 5877 5877 5878 5879 5882 5884 5886 5888 5890 5892 5894 5896 5897 5899 5901 5902 5902 5902 5903 5904 5905 5905 5907 5908 5909 5910 5911 5911 5911 5913 5914 5915 5916 5918 5919 5920 5921 5923 5925 5926 5927 5928 5929 5930 5931 5931 5932 5933 5933 5934 5935 5935 5937 5938 5939 5941 5941 5942 5943 5944
5820 5821 5825 5827 5829 5832 5834 5837 5839 5841 5844 5849 5853 5855 5857 5857 5858 5858 5858 5859 5860 5862 5865 5869 5872 5874 5876 5877 5877 5878 5880 5882 5884 5886 5889 5892 5893 5895 5896 5898 5900 5901 5901 5902 5903 5904 5904 5905 5906 5907 5909 5910 5910 5911 5911 5912 5914 5915 5916 5917 5919 5920 5922 5923 5925 5926 5927 5928 5928 5929 5930 5931 5931 5932 5933 5934 5935 5936 5937 5938 5939 5941 5941 5942 5943 5944
5816 5819 5822 5824 5826 5829 5832 5835 5837 5839 5842 5848 5852 5853 5854 5855 5856 5856 5856 5857 5858 5860 5862 5865 5869 5872 5875 5877 5877 5877 5878 5879 5882 5885 5888 5890 5892 5894 5895 5897 5898 5900 5901 5901 5902 5903 5904 5904 5905 5906 5908 5909 5910 5910 5911 5912 5913 5915 5916 5917 5918 5920 5922 5923 5925 5926 5927 5928 5928 5929 5930 5931 5932 5933 5934 5934 5935 5936 5937 5938 5939 5941 5941 5942 5943 5944
5813 5816 5819 5821 5824 5827 5830 5833 5835 5837 5841 5846 5849 5850 5851 5853 5853 5854 5855 5855 5856 5858 5861 5863 5866 5870 5874 5876 5876 5876 5877 5878 5881 5884 5887 5889 5891 5893 5895 5896 5897 5898 5900 5901 5901 5902 5902 5903 5904 5905 5907 5909 5910 5910 5910 5911 5912 5914 5915 5917 5918 5920 5922 5923 5925 5926 5926 5927 5928 5929 5930 5931 5932 5933 5934 5935 5935 5936 5937 5938 5939 5940 5941 5942 5943 5944
5810 5813 5816 5819 5822 5825 5828 5830 5832 5835 5839 5842 5844 5845 5848 5849 5851 5852 5853 5853 5854 5856 5859 5861 5864 5868 5872 5873 5874 5877 5878 5879 5881 5884 5886 5888 5890 5892 5893 5895 5895 5897 5899 5900 5900 5901 5902 5902 5903 5904 5906 5908 5909 5910 5910 5911 5912 5913 5915 5917 5918 5920 5922 5923 5924 5925 5926 5927 5928 5929 5930 5931 5932 5933 5934 5935 5935 5936 5937 5938 5939 5940 5941 5942 5943 5944
5807 5810 5813 5816 5819 5821 5824 5826 5829 5833 5836 5838 5839 5842 5844 5846 5848 5850 5851 5851 5853 5855 5857 5859 5862 5866 5870 5871 5874 5878 5880 5880 5882 5884 5886 5888 5889 5891 5892 5893 5894 5895 5897 5898 5899 5900 5901 5902 5903 5904 5906 5907 5909 5910 5910 5911 5912 5913 5914 5916 5917 5919 5921 5923 5924 5925 5926 5927 5928 5929 5930 5930 5931 5932 5933 5934 5935 5935 5936 5937 5939 5940 5941 5942 5943 5944
5804 5807 5810 5812 5814 5817 5820 5823 5826 5829 5832 5834 5836 5839 5841 5843 5845 5847 5848 5850 5852 5853 5854 5856 5859 5863 5867 5870 5873 5877 5878 5879 5881 5883 5886 5887 5888 5890 5891 5892 5893 5894 5895 5897 5898 5899 5900 5901 5902 5904 5905 5907 5908 5909 5910 5910 5911 5912 5913 5915 5917 5918 5920 5922 5924 5925 5926 5927 5928 5929 5929 5930 5930 5931 5932 5933 5934 5935 5936 5937 5939 5940 5941 5942 5943 5944
5801 5803 5806 5808 5810 5814 5817 5820 5822 5825 5828 5830 5833 5835 5837 5840 5842 5844 5846 5848 5851 5853 5853 5854 5857 5860 5865 5868 5871 5874 5875 5877 5879 5881 5884 5886 5887 5888 5889 5890 5891 5892 5894 5895 5897 5897 5898 5900 5901 5903 5904 5905 5907 5908 5909 5910 5910 5911 5912 5914 5916 5918 5919 5921 5923 5925 5926 5927 5928 5929 5929 5930 5930 5931 5932 5933 5934 5935 5936 5937 5938 5939 5940 5941 5942 5944
5797 5801 5803 5804 5807 5811 5814 5816 5818 5821 5824 5827 5829 5832 5834 5836 5838 5841 5844 5846 5850 5852 5852 5852 5855 5858 5862 5864 5867 5869 5871 5874 5876 5879 5881 5883 5885 5886 5887 5888 5889 5890 5891 5893 5895 5896 5897 5899 5900 5901 5903 5904 5906 5907 5908 5909 5909 5910 5911 5913 5914 5916 5918 5920 5922 5924 5925 5926 5927 5928 5929 5930 5930 5930 5931 5932 5934 5935 5936 5937 5938 5940 5940 5941 5942 5943
5795 5797 5798 5800 5803 5808 5811 5813 5816 5818 5821 5823 5826 5828 5831 5833 5836 5839 5842 5845 5848 5851 5850 5851 5854 5856 5858 5861 5864 5866 5867 5868 5871 5874 5876 5879 5881 5883 5884 5885 5887 5889 5890 5891 5893 5895 5896 5897 5898 5900 5902 5903 5905 5906 5907 5908 5909 5910 5911 5911 5913 5915 5917 5918 5920 5922 5924 5925 5927 5928 5929 5930 5930 5930 5931 5932 5933 5935 5936 5937 5938 5940 5941 5942 5942 5943
5792 5793 5794 5797 5801 5804 5807 5810 5813 5815 5817 5820 5822 5824 5826 5829 5833 5836 5839 5841 5845 5848 5848 5850 5852 5853 5855 5859 5863 5864 5865 5866 5867 5868 5869 5871 5874 5877 5880 5883 5885 5888 5890 5891 5892 5893 5895 5896 5897 5899 5901 5902 5903 5905 5906 5907 5908 5909 5910 5910 5912 5913 5915 5917 5918 5920 5922 5924 5926 5928 5929 5930 5930 5931 5931 5932 5933 5934 5935 5937 5938 5939 5940 5942 5943 5943
5789 5790 5792 5794 5797 5801 5804 5806 5808 5810 5812 5815 5818 5820 5822 5825 5828 5831 5834 5837 5841 5844 5846 5848 5849 5850 5853 5856 5858 5860 5862 5863 5865 5866 5867 5868 5869 5871 5875 5879 5882 5884 5887 5890 5892 5892 5893 5894 5896 5897 5899 5901 5902 5904 5905 5906 5907 5908 5909 5909 5910 5912 5914 5916 5917 5918 5920 5922 5925 5927 5928 5929 5930 5931 5932 5932 5933 5934 5935 5936 5937 5939 5940 5942 5943 5944
5785 5787 5789 5791 5793 5796 5799 5802 5804 5806 5808 5811 5814 5817 5820 5823 5826 5828 5830 5833 5836 5839 5842 5844 5845 5848 5851 5851 5852 5855 5857 5859 5862 5864 5866 5868 5868 5869 5872 5875 5877 5880 5884 5887 5890 5890 5891 5892 5894 5896 5898 5899 5901 5902 5904 5904 5905 5906 5907 5908 5909 5911 5913 5914 5915 5917 5918 5920 5923 5925 5927 5929 5930 5931 5931 5932 5933 5933 5934 5936 5937 5939 5940 5941 5942 5944
5783 5784 5786 5787 5789 5792 5796 5798 5800 5801 5804 5807 5811 5814 5818 5820 5822 5825 5828 5829 5831 5835 5837 5839 5842 5845 5846 5846 5848 5851 5853 5855 5858 5860 5863 5865 5866 5868 5871 5872 5873 5875 5879 5883 5886 5889 5890 5892 5893 5895 5897 5898 5899 5901 5902 5903 5904 5905 5906 5907 5908 5909 5910 5912 5913 5915 5917 5919 5921 5923 5925 5927 5929 5930 5930 5931 5932 5933 5934 5936 5937 5938 5939 5940 5942 5943
5779 5781 5783 5784 5787 5790 5792 5794 5796 5798 5800 5804 5806 5809 5813 5815 5818 5821 5824 5826 5828 5831 5834 5836 5839 5840 5841 5842 5845 5848 5849 5852 5854 5857 5860 5862 5864 5866 5869 5870 5871 5873 5875 5879 5883 5887 5889 5891 5892 5893 5895 5896 5898 5899 5900 5901 5903 5904 5905 5906 5907 5907 5908 5910 5912 5914 5916 5918 5919 5921 5923 5925 5927 5929 5930 5931 5932 5933 5934 5935 5936 5938 5939 5940 5942 5943
5776 5778 5780 5782 5784 5786 5787 5789 5792 5794 5797 5799 5802 5805 5808 5810 5813 5817 5819 5822 5824 5827 5830 5833 5835 5836 5837 5839 5842 5844 5846 5849 5852 5854 5856 5858 5861 5864 5866 5867 5869 5871 5873 5876 5880 5884 5887 5889 5890 5891 5893 5894 5895 5896 5898 5900 5901 5903 5904 5905 5906 5906 5907 5909 5911 5913 5915 5917 5918 5920 5922 5924 5926 5927 5929 5930 5931 5932 5933 5934 5936 5937 5938 5940 5942 5943
5773 5776 5778 5779 5780 5781 5783 5785 5788 5791 5793 5795 5798 5801 5803 5806 5809 5813 5815 5817 5820 5823 5825 5828 5830 5832 5835 5837 5839 5841 5844 5846 5849 5851 5853 5855 5858 5860 5862 5865 5867 5869 5870 5872 5876 5881 5884 5886 5888 5889 5890 5892 5894 5895 5897 5898 5899 5901 5903 5904 5905 5905 5906 5907 5908 5910 5913 5915 5916 5918 5920 5922 5924 5925 5927 5929 5930 5931 5932 5934 5935 5936 5938 5940 5941 5943
5771 5773 5775 5776 5776 5777 5780 5783 5786 5788 5789 5791 5794 5797 5800 5802 5805 5809 5811 5813 5815 5818 5821 5824 5826 5829 5832 5835 5837 5839 5842 5844 5847 5849 5850 5852 5855 5857 5859 5862 5864 5865 5866 5867 5869 5874 5878 5881 5884 5886 5887 5889 5891 5893 5895 5896 5898 5899 5901 5902 5903 5904 5905 5905 5906 5908 5909 5912 5914 5916 5917 5919 5922 5924 5925 5927 5929 5930 5931 5933 5933 5935 5937 5938 5940 5942
5769 5771 5772 5773 5772 5774 5777 5781 5782 5785 5786 5788 5791 5793 5796 5798 5801 5805 5807 5809 5812 5814 5817 5820 5821 5824 5830 5832 5834 5837 5840 5842 5844 5846 5848 5850 5852 5854 5856 5858 5860 5862 5863 5863 5863 5866 5869 5873 5877 5880 5883 5886 5889 5891 5893 5894 5896 5898 5899 5901 5902 5903 5903 5904 5904 5905 5907 5909 5911 5913 5915 5917 5920 5922 5924 5926 5928 5929 5930 5931 5932 5934 5935 5937 5939 5941
5766 5768 5770 5770 5770 5771 5774 5777 5779 5781 5783 5785 5788 5790 5793 5795 5798 5801 5802 5805 5809 5811 5814 5817 5817 5819 5826 5829 5831 5834 5837 5839 5842 5844 5846 5848 5850 5852 5853 5855 5857 5859 5860 5861 5861 5862 5863 5865 5868 5872 5876 5880 5884 5887 5890 5892 5894 5895 5897 5899 5900 5901 5902 5902 5903 5904 5905 5907 5908 5910 5913 5915 5918 5920 5922 5924 5926 5927 5929 5930 5931 5932 5933 5935 5937 5939
5762 5764 5766 5767 5767 5768 5771 5773 5776 5778 5780 5782 5785 5787 5790 5792 5794 5797 5798 5801 5805 5808 5811 5812 5812 5815 5821 5825 5828 5831 5833 5836 5839 5841 5844 5846 5847 5849 5850 5852 5854 5856 5857 5859 5860 5861 5862 5863 5865 5867 5869 5872 5876 5880 5884 5887 5890 5892 5894 5896 5898 5899 5900 5901 5902 5902 5903 5904 5906 5909 5911 5913 5916 5919 5921 5922 5923 5925 5926 5928 5930 5931 5932 5933 5935 5937
5758 5760 5762 5763 5764 5766 5768 5770 5772 5775 5777 5779 5781 5784 5786 5788 5790 5793 5795 5798 5801 5804 5806 5807 5809 5813 5818 5822 5825 5827 5830 5833 5836 5838 5841 5843 5845 5846 5848 5849 5851 5852 5854 5856 5858 5860 5861 5863 5864 5865 5866 5868 5870 5873 5876 5879 5882 5886 5889 5891 5893 5895 5897 5898 5899 5900 5902 5903 5905 5907 5909 5911 5914 5916 5918 5920 5921 5922 5924 5926 5928 5930 5931 5932 5933 5935
5755 5757 5758 5760 5762 5764 5765 5767 5769 5771 5773 5776 5778 5781 5782 5784 5787 5789 5791 5794 5797 5800 5801 5804 5807 5810 5814 5818 5822 5823 5826 5829 5831 5834 5837 5840 5842 5843 5844 5846 5848 5849 5851 5853 5856 5857 5859 5861 5863 5864 5865 5867 5869 5870 5872 5874 5876 5879 5882 5885 5887 5889 5892 5894 5896 5898 5899 5900 5902 5904 5907 5909 5911 5913 5915 5917 5918 5920 5922 5924 5926 5927 5929 5930 5932 5933
5751 5753 5755 5757 5759 5761 5762 5764 5766 5768 5770 5773 5775 5777 5779 5781 5783 5785 5787 5790 5793 5796 5798 5801 5803 5806 5810 5815 5818 5820 5822 5824 5827 5830 5833 5836 5838 5839 5840 5842 5844 5846 5848 5850 5852 5854 5856 5858 5860 5861 5863 5865 5867 5869 5871 5873 5875 5877 5879 5881 5882 5884 5887 5889 5891 5894 5895 5897 5900 5901 5903 5905 5907 5909 5911 5913 5915 5918 5920 5922 5923 5925 5926 5928 5930 5931
5748 5750 5752 5754 5755 5757 5759 5761 5763 5765 5768 5770 5772 5773 5775 5777 5779 5781 5784 5786 5789 5793 5796 5798 5798 5800 5805 5810 5813 5816 5818 5819 5822 5825 5828 5831 5834 5835 5837 5839 5841 5843 5844 5846 5848 5850 5852 5855 5857 5859 5860 5862 5864 5866 5869 5871 5873 5876 5878 5879 5880 5882 5884 5885 5888 5890 5892 5894 5896 5897 5899 5901 5903 5906 5908 5910 5913 5915 5917 5919 5920 5922 5924 5926 5927 5929
5745 5746 5749 5751 5752 5753 5756 5758 5760 5762 5765 5767 5768 5769 5770 5772 5775 5777 5780 5783 5786 5789 5792 5793 5793 5795 5799 5804 5807 5810 5813 5814 5817 5820 5823 5826 5829 5831 5833 5835 5837 5839 5840 5842 5844 5845 5848 5851 5853 5856 5858 5859 5861 5863 5866 5868 5870 5873 5875 5877 5878 5880 5882 5884 5886 5888 5890 5892 5893 5893 5895 5897 5900 5902 5905 5908 5910 5912 5913 5915 5917 5919 5921 5922 5924 5926
5742 5743 5745 5747 5748 5750 5752 5754 5756 5759 5762 5764 5764 5763 5765 5768 5770 5773 5776 5779 5782 5785 5787 5789 5790 5791 5794 5798 5801 5804 5807 5809 5811 5814 5818 5820 5823 5826 5828 5830 5832 5834 5836 5838 5840 5842 5844 5846 5849 5851 5853 5855 5858 5860 5862 5865 5867 5869 5871 5873 5875 5878 5880 5883 5885 5887 5889 5890 5890 5891 5892 5894 5896 5899 5902 5905 5908 5909 5911 5912 5914 5916 5918 5919 5921 5922
5738 5739 5740 5742 5744 5745 5747 5750 5752 5755 5758 5759 5759 5759 5761 5762 5765 5768 5771 5773 5777 5780 5782 5784 5785 5786 5788 5791 5795 5798 5801 5804 5806 5808 5811 5814 5817 5820 5822 5825 5827 5830 5832 5833 5835 5838 5840 5842 5845 5846 5848 5850 5852 5855 5858 5860 5863 5866 5868 5870 5872 5875 5877 5880 5883 5886 5887 5887 5888 5889 5891 5892 5894 5897 5899 5902 5905 5907 5908 5910 5912 5914 5916 5917 5918 5919
5732 5733 5734 5736 5738 5739 5741 5745 5748 5751 5754 5754 5754 5755 5756 5757 5760 5763 5765 5767 5771 5774 5777 5779 5780 5780 5782 5784 5788 5791 5795 5798 5800 5802 5805 5808 5811 5814 5816 5819 5822 5824 5827 5828 5830 5832 5834 5837 5840 5842 5843 5844 5847 5849 5852 5856 5859 5861 5864 5866 5869 5871 5874 5876 5879 5882 5884 5886 5887 5888 5889 5890 5891 5893 5896 5898 5900 5902 5904 5907 5910 5912 5913 5914 5915 5916
5727 5728 5728 5730 5731 5733 5735 5738 5741 5745 5747 5747 5748 5751 5752 5753 5755 5756 5758 5760 5764 5767 5771 5773 5774 5775 5776 5779 5782 5785 5788 5792 5794 5797 5799 5802 5805 5807 5810 5813 5815 5818 5821 5823 5825 5827 5829 5832 5835 5837 5839 5840 5841 5844 5847 5850 5854 5857 5859 5862 5865 5868 5870 5873 5876 5878 5881 5883 5885 5887 5888 5888 5889 5890 5891 5893 5895 5897 5900 5903 5906 5908 5910 5911 5912 5913
5722 5723 5724 5725 5726 5728 5730 5731 5734 5737 5739 5739 5742 5744 5745 5746 5748 5749 5750 5752 5755 5759 5763 5766 5768 5769 5771 5773 5776 5779 5782 5785 5789 5791 5794 5796 5799 5801 5803 5806 5809 5811 5814 5817 5819 5821 5824 5826 5829 5832 5834 5836 5837 5840 5843 5846 5849 5852 5855 5858 5861 5864 5866 5869 5872 5875 5878 5880 5882 5884 5886 5887 5887 5887 5887 5889 5890 5893 5895 5898 5901 5903 5904 5906 5908 5910
5719 5720 5720 5720 5721 5723 5724 5726 5728 5729 5731 5733 5734 5734 5735 5737 5738 5739 5741 5744 5747 5750 5754 5758 5760 5762 5765 5767 5769 5772 5775 5779 5782 5785 5787 5790 5792 5794 5797 5799 5801 5804 5808 5811 5814 5816 5818 5821 5824 5827 5830 5832 5834 5837 5839 5842 5844 5847 5850 5853 5857 5860 5863 5865 5868 5871 5874 5876 5879 5880 5882 5884 5885 5885 5885 5886 5888 5890 5892 5894 5896 5897 5899 5901 5903 5905
5716 5717 5717 5717 5717 5718 5719 5721 5723 5724 5725 5726 5725 5724 5725 5727 5728 5729 5733 5737 5740 5743 5747 5750 5752 5754 5757 5760 5762 5765 5768 5772 5776 5778 5780 5783 5786 5788 5791 5793 5794 5797 5801 5805 5807 5809 5812 5815 5819 5822 5824 5827 5830 5832 5835 5838 5840 5842 5845 5848 5852 5856 5859 5861 5864 5866 5869 5872 5875 5876 5879 5881 5883 5884 5885 5886 5887 5888 5889 5891 5892 5893 5895 5897 5899 5901
5713 5714 5714 5713 5714 5714 5714 5716 5717 5718 5719 5719 5719 5719 5718 5717 5718 5719 5722 5729 5734 5736 5739 5743 5744 5746 5749 5751 5754 5756 5759 5763 5768 5770 5772 5775 5779 5782 5784 5786 5788 5791 5794 5798 5800 5803 5805 5809 5812 5816 5819 5822 5824 5826 5830 5833 5834 5838 5841 5845 5848 5851 5854 5857 5859 5862 5865 5868 5870 5873 5875 5879 5881 5883 5884 5885 5886 5887 5888 5888 5889 5890 5892 5894 5895 5897
5710 5710 5710 5710 5710 5710 5710 5711 5712 5712 5712 5713 5713 5713 5711 5710 5710 5709 5712 5722 5729 5730 5731 5734 5735 5737 5739 5742 5745 5748 5750 5754 5759 5763 5764 5767 5771 5775 5778 5780 5782 5784 5787 5790 5794 5797 5800 5803 5806 5809 5813 5816 5818 5820 5824 5827 5830 5835 5839 5841 5844 5848 5850 5853 5855 5858 5861 5864 5866 5869 5872 5875 5878 5880 5882 5883 5884 5885 5886 5886 5887 5888 5889 5891 5892 5893
5707 5707 5707 5707 5706 5706 5706 5706 5707 5707 5707 5706 5706 5705 5704 5704 5703 5702 5707 5716 5720 5719 5720 5724 5726 5727 5729 5732 5736 5739 5741 5744 5750 5754 5757 5759 5763 5767 5771 5773 5775 5777 5780 5783 5786 5790 5793 5796 5800 5803 5806 5809 5811 5814 5817 5822 5826 5831 5834 5836 5839 5843 5846 5849 5852 5855 5857 5860 5863 5866 5869 5872 5874 5877 5879 5880 5881 5882 5883 5884 5885 5886 5888 5888 5889 5890
5703 5703 5703 5703 5702 5702 5701 5701 5702 5702 5701 5700 5699 5699 5698 5697 5697 5699 5703 5707 5707 5707 5710 5713 5715 5717 5719 5722 5725 5729 5732 5735 5740 5745 5749 5752 5754 5758 5762 5765 5768 5770 5773 5776 5778 5782 5785 5789 5793 5796 5800 5803 5805 5808 5811 5815 5820 5825 5828 5831 5834 5838 5842 5845 5848 5851 5854 5857 5860 5862 5865 5868 5870 5872 5875 5876 5877 5878 5880 5881 5883 5884 5885 5886 5887 5888
5700 5700 5699 5698 5698 5698 5697 5697 5696 5696 5696 5695 5694 5694 5693 5692 5693 5694 5696 5696 5697 5698 5700 5702 5705 5707 5709 5711 5715 5719 5723 5726 5730 5736 5740 5744 5747 5750 5753 5757 5760 5763 5766 5769 5772 5775 5778 5782 5786 5790 5793 5797 5800 5802 5805 5809 5814 5818 5822 5825 5828 5832 5836 5839 5843 5846 5849 5852 5855 5858 5861 5863 5865 5868 5871 5872 5873 5874 5876 5878 5879 5881 5883 5884 5885 5886
5697 5696 5695 5694 5694 5693 5693 5692 5691 5690 5690 5690 5690 5689 5688 5688 5688 5689 5689 5689 5690 5691 5692 5694 5696 5698 5700 5702 5705 5708 5713 5717 5721 5725 5730 5735 5739 5742 5745 5748 5752 5756 5759 5763 5766 5768 5772 5775 5779 5783 5787 5791 5794 5797 5800 5803 5807 5812 5816 5820 5823 5826 5830 5834 5838 5841 5844 5847 5850 5853 5856 5858 5860 5863 5866 5868 5870 5871 5872 5874 5875 5877 5879 5880 5882 5884
5694 5693 5691 5690 5690 5689 5688 5688 5686 5685 5685 5685 5684 5684 5683 5683 5683 5683 5683 5683 5684 5684 5685 5688 5689 5690 5691 5693 5695 5699 5703 5707 5711 5715 5720 5725 5730 5733 5737 5740 5744 5747 5751 5755 5759 5762 5765 5768 5773 5777 5781 5784 5788 5792 5795 5799 5803 5806 5810 5815 5818 5821 5825 5829 5833 5836 5839 5841 5844 5847 5850 5852 5855 5858 5861 5863 5865 5867 5869 5870 5871 5873 5875 5877 5879 5881
5691 5690 5689 5687 5686 5686 5685 5683 5682 5681 5680 5679 5678 5678 5678 5678 5677 5677 5677 5677 5678 5678 5678 5680 5681 5682 5683 5684 5687 5690 5693 5696 5700 5704 5709 5715 5720 5724 5728 5732 5736 5739 5743 5747 5751 5754 5758 5762 5766 5771 5775 5778 5782 5786 5790 5794 5799 5801 5805 5809 5814 5817 5820 5824 5828 5831 5834 5836 5839 5842 5844 5847 5850 5854 5856 5858 5860 5863 5865 5866 5868 5869 5871 5872 5874 5877
5687 5686 5686 5685 5683 5682 5681 5679 5678 5677 5675 5674 5673 5672 5672 5672 5671 5671 5671 5671 5671 5671 5671 5672 5673 5675 5675 5676 5678 5681 5684 5686 5690 5694 5698 5704 5710 5715 5719 5724 5728 5731 5734 5739 5743 5745 5750 5755 5760 5764 5768 5772 5776 5780 5784 5789 5794 5797 5800 5804 5809 5812 5816 5819 5822 5826 5829 5831 5834 5837 5840 5842 5845 5848 5851 5853 5855 5858 5860 5862 5863 5865 5866 5868 5870 5873
5684 5683 5682 5681 5680 5678 5677 5675 5674 5673 5671 5669 5668 5667 5667 5666 5666 5665 5664 5664 5664 5664 5664 5665 5666 5667 5668 5669 5669 5672 5675 5678 5680 5683 5688 5693 5699 5705 5710 5714 5719 5722 5725 5730 5734 5737 5742 5748 5754 5758 5762 5766 5770 5774 5778 5782 5787 5791 5795 5798 5803 5807 5811 5814 5817 5820 5823 5826 5829 5833 5835 5837 5840 5843 5845 5847 5849 5852 5855 5857 5859 5861 5862 5865 5867 5869
5681 5679 5678 5677 5676 5674 5673 5671 5670 5669 5667 5664 5662 5662 5662 5661 5660 5659 5658 5658 5657 5658 5658 5658 5659 5660 5661 5662 5662 5663 5667 5670 5671 5673 5677 5682 5688 5694 5700 5705 5710 5715 5718 5721 5725 5729 5734 5740 5746 5751 5756 5760 5763 5768 5772 5776 5780 5785 5789 5793 5797 5802 5806 5809 5812 5815 5818 5821 5825 5827 5830 5832 5835 5838 5840 5842 5844 5847 5850 5852 5854 5856 5858 5861 5863 5865
5676 5675 5674 5673 5672 5670 5669 5667 5666 5665 5663 5660 5657 5656 5656 5655 5654 5654 5653 5652 5651 5651 5651 5652 5653 5653 5654 5655 5655 5656 5659 5663 5664 5664 5667 5673 5678 5683 5690 5695 5701 5706 5711 5713 5715 5720 5726 5732 5738 5743 5749 5753 5757 5762 5766 5769 5773 5779 5784 5788 5792 5796 5800 5803 5806 5809 5812 5816 5819 5822 5825 5827 5830 5833 5835 5837 5840 5842 5845 5847 5849 5851 5854 5856 5858 5861
5672 5671 5669 5669 5668 5666 5665 5663 5662 5660 5658 5655 5652 5650 5649 5649 5648 5648 5647 5646 5645 5645 5645 5646 5647 5647 5648 5648 5648 5649 5651 5655 5657 5657 5660 5665 5669 5673 5679 5685 5691 5697 5702 5704 5707 5712 5718 5723 5729 5735 5741 5746 5750 5755 5759 5763 5767 5772 5777 5782 5786 5791 5795 5798 5801 5804 5807 5810 5813 5816 5819 5822 5825 5827 5830 5832 5835 5837 5839 5842 5845 5847 5849 5852 5854 5856